| time (UTC) | temp C | wind direction | speed KPH | gust KPH | rain 1hr cm | rain 24hr cm | rain mn cm | humidity % | barometer mb |
| 20260506180929 | 18 | 247 | 8.0 | 12.9 | 0.00 | 0.00 | 0.00 | 66 | 1010.1 |
| 20260506180429 | 18 | 225 | 12.9 | 12.9 | 0.00 | 0.00 | 0.00 | 66 | 1010.3 |
| 20260506175929 | 18 | 202 | 3.2 | 9.7 | 0.00 | 0.00 | 0.00 | 65 | 1010.0 |
| 20260506175429 | 18 | 247 | 8.0 | 8.0 | 0.00 | 0.00 | 0.00 | 65 | 1009.9 |
| 20260506174929 | 18 | 247 | 8.0 | 9.7 | 0.00 | 0.00 | 0.00 | 65 | 1009.9 |
| 20260506174429 | 18 | 247 | 4.8 | 11.3 | 0.00 | 0.00 | 0.00 | 64 | 1010.2 |
| 20260506173929 | 18 | 247 | 11.3 | 17.7 | 0.00 | 0.00 | 0.00 | 64 | 1010.1 |
| 20260506173430 | 18 | 225 | 17.7 | 17.7 | 0.00 | 0.00 | 0.00 | 64 | 1010.1 |
| 20260506172929 | 18 | 225 | 4.8 | 6.4 | 0.00 | 0.00 | 0.00 | 64 | 1010.1 |
| 20260506172429 | 19 | 225 | 6.4 | 6.4 | 0.00 | 0.00 | 0.00 | 64 | 1010.1 |
| 20260506171929 | 19 | 135 | 0.0 | 0.0 | 0.00 | 0.00 | 0.00 | 64 | 1010.1 |
| 20260506171430 | 19 | 135 | 0.0 | 17.7 | 0.00 | 0.00 | 0.00 | 64 | 1010.1 |
| 20260506170930 | 19 | 247 | 0.0 | 0.0 | 0.00 | 0.00 | 0.00 | 63 | 1010.1 |
| 20260506170430 | 20 | 247 | 0.0 | 6.4 | 0.00 | 0.00 | 0.00 | 63 | 1009.9 |
| 20260506165930 | 20 | 202 | 6.4 | 9.7 | 0.00 | 0.00 | 0.00 | 60 | 1010.0 |
| 20260506165430 | 20 | 225 | 9.7 | 9.7 | 0.00 | 0.00 | 0.00 | 60 | 1010.0 |
| 20260506164930 | 20 | 247 | 8.0 | 8.0 | 0.00 | 0.00 | 0.00 | 59 | 1009.9 |
| 20260506164430 | 20 | 247 | 8.0 | 8.0 | 0.00 | 0.00 | 0.00 | 59 | 1009.9 |
| 20260506163930 | 20 | 247 | 8.0 | 8.0 | 0.00 | 0.00 | 0.00 | 59 | 1009.9 |
| 20260506163430 | 20 | 180 | 8.0 | 8.0 | 0.00 | 0.00 | 0.00 | 59 | 1009.9 |
| 20260506162930 | 20 | 180 | 8.0 | 9.7 | 0.00 | 0.00 | 0.00 | 59 | 1009.7 |
| 20260506162430 | 20 | 225 | 8.0 | 8.0 | 0.00 | 0.00 | 0.00 | 58 | 1009.7 |
| 20260506161930 | 20 | 225 | 8.0 | 8.0 | 0.00 | 0.00 | 0.00 | 58 | 1009.7 |
| 20260506161430 | 20 | 135 | 8.0 | 8.0 | 0.00 | 0.00 | 0.00 | 57 | 1009.7 |
| 20260506160930 | 20 | 202 | 6.4 | 6.4 | 0.00 | 0.00 | 0.00 | 57 | 1009.7 |
| 20260506160430 | 21 | 135 | 3.2 | 3.2 | 0.00 | 0.00 | 0.00 | 57 | 1009.6 |
| 20260506155930 | 21 | 135 | 3.2 | 9.7 | 0.00 | 0.00 | 0.00 | 57 | 1009.7 |
| 20260506155430 | 21 | 225 | 9.7 | 9.7 | 0.00 | 0.00 | 0.00 | 56 | 1009.7 |
| 20260506154930 | 21 | 202 | 4.8 | 8.0 | 0.00 | 0.00 | 0.00 | 56 | 1009.7 |
| 20260506154430 | 21 | 202 | 0.0 | 12.9 | 0.00 | 0.00 | 0.00 | 56 | 1009.6 |
| 20260506153930 | 21 | 135 | 12.9 | 12.9 | 0.00 | 0.00 | 0.00 | 55 | 1009.7 |
| 20260506153430 | 21 | 135 | 12.9 | 12.9 | 0.00 | 0.00 | 0.00 | 55 | 1009.7 |
| 20260506152930 | 21 | 270 | 8.0 | 11.3 | 0.00 | 0.00 | 0.00 | 55 | 1009.8 |
| 20260506152430 | 21 | 202 | 11.3 | 12.9 | 0.00 | 0.00 | 0.00 | 55 | 1009.8 |
| 20260506151930 | 21 | 180 | 12.9 | 12.9 | 0.00 | 0.00 | 0.00 | 55 | 1009.8 |
| 20260506151430 | 21 | 180 | 0.0 | 8.0 | 0.00 | 0.00 | 0.00 | 55 | 1009.8 |
| 20260506150930 | 21 | 180 | 8.0 | 8.0 | 0.00 | 0.00 | 0.00 | 55 | 1009.8 |
| 20260506150430 | 21 | 112 | 6.4 | 6.4 | 0.00 | 0.00 | 0.00 | 56 | 1009.9 |
| 20260506145930 | 21 | 202 | 1.6 | 1.6 | 0.00 | 0.00 | 0.00 | 55 | 1010.1 |
| 20260506145430 | 21 | 202 | 0.0 | 6.4 | 0.00 | 0.00 | 0.00 | 54 | 1010.0 |
| 20260506144930 | 21 | 270 | 6.4 | 6.4 | 0.00 | 0.00 | 0.00 | 55 | 1010.0 |
| 20260506144430 | 21 | 247 | 4.8 | 11.3 | 0.00 | 0.00 | 0.00 | 55 | 1010.2 |
| 20260506143930 | 21 | 180 | 11.3 | 11.3 | 0.00 | 0.00 | 0.00 | 55 | 1010.2 |
| 20260506143430 | 21 | 112 | 3.2 | 9.7 | 0.00 | 0.00 | 0.00 | 55 | 1010.2 |
| 20260506142930 | 21 | 225 | 8.0 | 8.0 | 0.00 | 0.00 | 0.00 | 53 | 1010.3 |
| 20260506142430 | 20 | 180 | 0.0 | 0.0 | 0.00 | 0.00 | 0.00 | 54 | 1010.2 |
| 20260506141930 | 20 | 225 | 0.0 | 11.3 | 0.00 | 0.00 | 0.00 | 54 | 1010.3 |
| 20260506141430 | 20 | 247 | 11.3 | 11.3 | 0.00 | 0.00 | 0.00 | 53 | 1010.3 |
| 20260506140930 | 20 | 202 | 6.4 | 6.4 | 0.00 | 0.00 | 0.00 | 53 | 1010.5 |
| 20260506140430 | 20 | 202 | 6.4 | 8.0 | 0.00 | 0.00 | 0.00 | 53 | 1010.4 |
| 20260506135930 | 20 | 225 | 1.6 | 9.7 | 0.00 | 0.00 | 0.00 | 53 | 1010.5 |
| 20260506135430 | 20 | 225 | 9.7 | 9.7 | 0.00 | 0.00 | 0.00 | 55 | 1010.6 |
| 20260506134930 | 20 | 225 | 9.7 | 9.7 | 0.00 | 0.00 | 0.00 | 55 | 1010.5 |
| 20260506134430 | 20 | 202 | 8.0 | 14.5 | 0.00 | 0.00 | 0.00 | 54 | 1010.8 |
| 20260506133930 | 20 | 180 | 14.5 | 14.5 | 0.00 | 0.00 | 0.00 | 54 | 1010.7 |
| 20260506133430 | 20 | 135 | 14.5 | 14.5 | 0.00 | 0.00 | 0.00 | 54 | 1010.6 |
| 20260506132930 | 20 | 202 | 3.2 | 9.7 | 0.00 | 0.00 | 0.00 | 53 | 1010.7 |
| 20260506132430 | 20 | 225 | 9.7 | 11.3 | 0.00 | 0.00 | 0.00 | 52 | 1010.7 |
| 20260506131930 | 20 | 247 | 11.3 | 11.3 | 0.00 | 0.00 | 0.00 | 52 | 1010.9 |
| 20260506131430 | 20 | 225 | 4.8 | 12.9 | 0.00 | 0.00 | 0.00 | 53 | 1010.8 |
| 20260506130930 | 20 | 225 | 12.9 | 14.5 | 0.00 | 0.00 | 0.00 | 53 | 1010.9 |
| 20260506130430 | 20 | 180 | 3.2 | 3.2 | 0.00 | 0.00 | 0.00 | 52 | 1011.0 |
| 20260506125930 | 20 | 202 | 0.0 | 12.9 | 0.00 | 0.00 | 0.00 | 51 | 1010.9 |
| 20260506125430 | 20 | 135 | 12.9 | 12.9 | 0.00 | 0.00 | 0.00 | 51 | 1011.2 |
| 20260506124930 | 20 | 225 | 9.7 | 17.7 | 0.00 | 0.00 | 0.00 | 47 | 1011.0 |
| 20260506124430 | 21 | 247 | 17.7 | 17.7 | 0.00 | 0.00 | 0.00 | 47 | 1011.2 |
| 20260506123930 | 21 | 247 | 17.7 | 17.7 | 0.00 | 0.00 | 0.00 | 47 | 1011.1 |
| 20260506123430 | 21 | 202 | 3.2 | 12.9 | 0.00 | 0.00 | 0.00 | 46 | 1011.0 |
| 20260506122930 | 21 | 247 | 12.9 | 12.9 | 0.00 | 0.00 | 0.00 | 44 | 1011.2 |
| 20260506122430 | 21 | 225 | 8.0 | 14.5 | 0.00 | 0.00 | 0.00 | 42 | 1011.0 |
| 20260506121930 | 21 | 270 | 14.5 | 14.5 | 0.00 | 0.00 | 0.00 | 42 | 1011.1 |
| 20260506121430 | 21 | 225 | 9.7 | 22.5 | 0.00 | 0.00 | 0.00 | 41 | 1011.0 |
| 20260506120930 | 21 | 247 | 9.7 | 14.5 | 0.00 | 0.00 | 0.00 | 41 | 1011.2 |
| 20260506120430 | 21 | 247 | 14.5 | 14.5 | 0.00 | 0.00 | 0.00 | 41 | 1011.2 |
| 20260506115930 | 21 | 225 | 9.7 | 9.7 | 0.00 | 0.00 | 0.00 | 42 | 1011.2 |
| 20260506115430 | 21 | 247 | 6.4 | 6.4 | 0.00 | 0.00 | 0.00 | 43 | 1011.2 |
| 20260506114931 | 21 | 270 | 4.8 | 11.3 | 0.00 | 0.00 | 0.00 | 43 | 1011.2 |
| 20260506114430 | 21 | 247 | 11.3 | 11.3 | 0.00 | 0.00 | 0.00 | 43 | 1011.2 |
| 20260506113930 | 21 | 270 | 9.7 | 9.7 | 0.00 | 0.00 | 0.00 | 42 | 1011.3 |
| 20260506113431 | 21 | 0 | 3.2 | 3.2 | 0.00 | 0.00 | 0.00 | 41 | 1011.3 |
| 20260506112931 | 21 | 247 | 0.0 | 12.9 | 0.00 | 0.00 | 0.00 | 41 | 1011.6 |
| 20260506112431 | 21 | 270 | 4.8 | 11.3 | 0.00 | 0.00 | 0.00 | 43 | 1011.5 |
| 20260506111931 | 20 | 225 | 6.4 | 6.4 | 0.00 | 0.00 | 0.00 | 45 | 1011.4 |
| 20260506111431 | 21 | 202 | 6.4 | 8.0 | 0.00 | 0.00 | 0.00 | 44 | 1011.5 |
| 20260506110931 | 21 | 22 | 8.0 | 8.0 | 0.00 | 0.00 | 0.00 | 44 | 1011.6 |
| 20260506110431 | 21 | 0 | 3.2 | 3.2 | 0.00 | 0.00 | 0.00 | 44 | 1011.6 |
| 20260506105931 | 21 | 135 | 0.0 | 9.7 | 0.00 | 0.00 | 0.00 | 44 | 1011.5 |
| 20260506105431 | 21 | 112 | 8.0 | 12.9 | 0.00 | 0.00 | 0.00 | 44 | 1011.6 |
| 20260506104931 | 21 | 112 | 6.4 | 6.4 | 0.00 | 0.00 | 0.00 | 44 | 1011.5 |
| 20260506104431 | 21 | 112 | 3.2 | 3.2 | 0.00 | 0.00 | 0.00 | 44 | 1011.6 |
| 20260506103931 | 21 | 0 | 0.0 | 4.8 | 0.00 | 0.00 | 0.00 | 45 | 1011.6 |
| 20260506103431 | 21 | 90 | 4.8 | 4.8 | 0.00 | 0.00 | 0.00 | 44 | 1011.6 |
| 20260506102931 | 21 | 0 | 4.8 | 9.7 | 0.00 | 0.00 | 0.00 | 43 | 1011.6 |
| 20260506102431 | 21 | 225 | 0.0 | 14.5 | 0.00 | 0.00 | 0.00 | 43 | 1011.8 |
| 20260506101931 | 21 | 202 | 1.6 | 9.7 | 0.00 | 0.00 | 0.00 | 43 | 1011.7 |
| 20260506101431 | 20 | 202 | 9.7 | 9.7 | 0.00 | 0.00 | 0.00 | 43 | 1011.7 |
| 20260506100931 | 20 | 315 | 4.8 | 4.8 | 0.00 | 0.00 | 0.00 | 43 | 1011.9 |
| 20260506100431 | 20 | 315 | 4.8 | 14.5 | 0.00 | 0.00 | 0.00 | 43 | 1011.8 |
| 20260506095931 | 20 | 225 | 14.5 | 14.5 | 0.00 | 0.00 | 0.00 | 43 | 1011.7 |
| 20260506095431 | 20 | 225 | 0.0 | 17.7 | 0.00 | 0.00 | 0.00 | 43 | 1011.9 |
| 20260506094931 | 20 | 225 | 17.7 | 17.7 | 0.00 | 0.00 | 0.00 | 43 | 1011.9 |
| 20260506094431 | 20 | 0 | 6.4 | 12.9 | 0.00 | 0.00 | 0.00 | 43 | 1012.0 |
| 20260506093931 | 20 | 247 | 12.9 | 12.9 | 0.00 | 0.00 | 0.00 | 43 | 1011.9 |
| 20260506093431 | 20 | 247 | 1.6 | 11.3 | 0.00 | 0.00 | 0.00 | 43 | 1011.8 |
| 20260506092931 | 20 | 270 | 11.3 | 11.3 | 0.00 | 0.00 | 0.00 | 43 | 1012.1 |
| 20260506092431 | 20 | 270 | 11.3 | 11.3 | 0.00 | 0.00 | 0.00 | 44 | 1012.1 |
| 20260506091931 | 20 | 270 | 11.3 | 11.3 | 0.00 | 0.00 | 0.00 | 44 | 1012.2 |
| 20260506091431 | 20 | 202 | 9.7 | 9.7 | 0.00 | 0.00 | 0.00 | 44 | 1012.0 |
| 20260506090931 | 19 | 315 | 0.0 | 0.0 | 0.00 | 0.00 | 0.00 | 45 | 1012.0 |
| 20260506090431 | 19 | 315 | 0.0 | 9.7 | 0.00 | 0.00 | 0.00 | 45 | 1012.1 |
| 20260506085931 | 19 | 247 | 3.2 | 9.7 | 0.00 | 0.00 | 0.00 | 45 | 1012.0 |
| 20260506085431 | 19 | 0 | 4.8 | 4.8 | 0.00 | 0.00 | 0.00 | 46 | 1011.9 |
| 20260506084931 | 19 | 0 | 4.8 | 4.8 | 0.00 | 0.00 | 0.00 | 46 | 1012.0 |
| 20260506084431 | 19 | 270 | 0.0 | 0.0 | 0.00 | 0.00 | 0.00 | 46 | 1012.0 |
| 20260506083931 | 18 | 270 | 0.0 | 0.0 | 0.00 | 0.00 | 0.00 | 48 | 1011.9 |
| 20260506083431 | 18 | 270 | 0.0 | 4.8 | 0.00 | 0.00 | 0.00 | 48 | 1011.8 |
| 20260506082931 | 18 | 337 | 4.8 | 4.8 | 0.00 | 0.00 | 0.00 | 48 | 1011.9 |
| 20260506082431 | 18 | 247 | 0.0 | 9.7 | 0.00 | 0.00 | 0.00 | 49 | 1011.9 |
| 20260506081931 | 18 | 337 | 9.7 | 12.9 | 0.00 | 0.00 | 0.00 | 50 | 1011.9 |
| 20260506081431 | 18 | 0 | 8.0 | 8.0 | 0.00 | 0.00 | 0.00 | 50 | 1011.7 |
| 20260506080931 | 18 | 337 | 3.2 | 24.1 | 0.00 | 0.00 | 0.00 | 50 | 1011.7 |
| 20260506080431 | 17 | 0 | 14.5 | 14.5 | 0.00 | 0.00 | 0.00 | 51 | 1011.7 |
| 20260506073431 | 17 | 337 | 0.0 | 9.7 | 0.00 | 0.00 | 0.00 | 53 | 1011.6 |
| 20260506072931 | 17 | 337 | 9.7 | 9.7 | 0.00 | 0.00 | 0.00 | 54 | 1011.5 |
| 20260506072431 | 17 | 337 | 4.8 | 4.8 | 0.00 | 0.00 | 0.00 | 55 | 1011.6 |
| 20260506071931 | 17 | 337 | 4.8 | 8.0 | 0.00 | 0.00 | 0.00 | 55 | 1011.6 |
| 20260506071431 | 16 | 0 | 4.8 | 4.8 | 0.00 | 0.00 | 0.00 | 56 | 1011.4 |
| 20260506070931 | 16 | 0 | 0.0 | 3.2 | 0.00 | 0.00 | 0.00 | 56 | 1011.3 |
| 20260506070431 | 16 | 337 | 1.6 | 16.1 | 0.00 | 0.00 | 0.00 | 57 | 1011.5 |
| 20260506062432 | 15 | 22 | 8.0 | 9.7 | 0.00 | 0.05 | 0.00 | 60 | 1011.2 |
| 20260506061932 | 15 | 0 | 4.8 | 9.7 | 0.00 | 0.05 | 0.00 | 60 | 1011.3 |
| 20260506061432 | 15 | 270 | 3.2 | 9.7 | 0.00 | 0.05 | 0.00 | 61 | 1011.3 |
| 20260506060932 | 14 | 337 | 6.4 | 22.5 | 0.00 | 0.05 | 0.00 | 61 | 1011.5 |
| 20260506060432 | 13 | 202 | 22.5 | 22.5 | 0.00 | 0.05 | 0.00 | 61 | 1011.3 |
| 20260506050932 | 13 | 225 | 6.4 | 8.0 | 0.00 | 0.05 | 0.00 | 64 | 1010.9 |
| 20260506050432 | 13 | 0 | 8.0 | 8.0 | 0.00 | 0.05 | 0.00 | 64 | 1010.7 |
| 20260506044932 | 13 | 0 | 11.3 | 14.5 | 0.00 | 0.05 | 0.00 | 65 | 1010.5 |
| 20260506044432 | 13 | 0 | 11.3 | 14.5 | 0.00 | 0.05 | 0.00 | 64 | 1010.8 |
| 20260506043932 | 13 | 337 | 6.4 | 6.4 | 0.00 | 0.05 | 0.00 | 64 | 1010.9 |
| 20260506043432 | 13 | 202 | 0.0 | 1.6 | 0.00 | 0.05 | 0.00 | 64 | 1011.0 |
| 20260506042932 | 13 | 247 | 1.6 | 6.4 | 0.00 | 0.05 | 0.00 | 64 | 1011.0 |
| 20260506042432 | 13 | 315 | 0.0 | 0.0 | 0.00 | 0.05 | 0.00 | 64 | 1011.1 |
| 20260506041932 | 13 | 315 | 0.0 | 1.6 | 0.00 | 0.05 | 0.00 | 63 | 1010.9 |
| 20260506041432 | 13 | 202 | 1.6 | 8.0 | 0.00 | 0.05 | 0.00 | 63 | 1011.0 |
| 20260506040932 | 13 | 315 | 3.2 | 3.2 | 0.00 | 0.05 | 0.00 | 63 | 1011.0 |
| 20260506040432 | 13 | 0 | 1.6 | 1.6 | 0.00 | 0.05 | 0.00 | 63 | 1011.0 |
| 20260506035932 | 13 | 0 | 1.6 | 9.7 | 0.00 | 0.05 | 0.00 | 63 | 1010.9 |
| 20260506035432 | 13 | 337 | 9.7 | 9.7 | 0.00 | 0.05 | 0.00 | 63 | 1011.0 |
| 20260506034932 | 13 | 337 | 9.7 | 9.7 | 0.00 | 0.05 | 0.00 | 63 | 1010.9 |
| 20260506034432 | 13 | 337 | 9.7 | 9.7 | 0.00 | 0.05 | 0.00 | 63 | 1010.7 |
| 20260506033932 | 13 | 22 | 6.4 | 6.4 | 0.00 | 0.05 | 0.00 | 64 | 1010.5 |
| 20260506033432 | 13 | 22 | 6.4 | 6.4 | 0.00 | 0.05 | 0.00 | 64 | 1010.4 |
| 20260506032932 | 13 | 22 | 6.4 | 9.7 | 0.00 | 0.05 | 0.00 | 65 | 1010.4 |
| 20260506032432 | 13 | 0 | 9.7 | 9.7 | 0.00 | 0.05 | 0.00 | 65 | 1010.4 |
| 20260506031932 | 13 | 0 | 9.7 | 12.9 | 0.00 | 0.05 | 0.00 | 65 | 1010.4 |
| 20260506031432 | 13 | 0 | 8.0 | 8.0 | 0.00 | 0.05 | 0.00 | 66 | 1010.5 |
| 20260506030932 | 13 | 0 | 1.6 | 9.7 | 0.00 | 0.05 | 0.00 | 66 | 1010.6 |
| 20260506030432 | 13 | 0 | 9.7 | 9.7 | 0.00 | 0.05 | 0.00 | 66 | 1010.4 |
| 20260506025932 | 13 | 0 | 6.4 | 11.3 | 0.00 | 0.05 | 0.00 | 66 | 1010.4 |
| 20260506025432 | 13 | 22 | 11.3 | 11.3 | 0.00 | 0.05 | 0.00 | 66 | 1010.2 |
| 20260506024932 | 13 | 22 | 11.3 | 16.1 | 0.00 | 0.05 | 0.00 | 66 | 1010.2 |
| 20260506024432 | 13 | 0 | 16.1 | 16.1 | 0.00 | 0.05 | 0.00 | 66 | 1010.3 |
| 20260506023932 | 13 | 112 | 4.8 | 8.0 | 0.00 | 0.05 | 0.00 | 67 | 1010.5 |
| 20260506023432 | 13 | 22 | 8.0 | 8.0 | 0.00 | 0.05 | 0.00 | 67 | 1010.4 |
| 20260506022932 | 13 | 22 | 4.8 | 12.9 | 0.00 | 0.05 | 0.00 | 67 | 1010.5 |
| 20260506022432 | 13 | 315 | 0.0 | 0.0 | 0.00 | 0.05 | 0.00 | 67 | 1010.5 |
| 20260506021932 | 13 | 0 | 0.0 | 8.0 | 0.00 | 0.05 | 0.00 | 67 | 1010.5 |
| 20260506021432 | 13 | 337 | 8.0 | 8.0 | 0.00 | 0.05 | 0.00 | 67 | 1010.6 |
| 20260506020932 | 13 | 0 | 4.8 | 8.0 | 0.00 | 0.05 | 0.00 | 67 | 1010.6 |
| 20260506015932 | 13 | 337 | 19.3 | 19.3 | 0.00 | 0.05 | 0.00 | 67 | 1010.4 |
| 20260506015432 | 13 | 337 | 9.7 | 9.7 | 0.00 | 0.05 | 0.00 | 67 | 1010.4 |
| 20260506014932 | 13 | 337 | 9.7 | 9.7 | 0.00 | 0.05 | 0.00 | 67 | 1010.1 |
| 20260506014432 | 13 | 0 | 3.2 | 3.2 | 0.00 | 0.05 | 0.00 | 67 | 1010.4 |
| 20260506013933 | 13 | 292 | 0.0 | 4.8 | 0.00 | 0.05 | 0.00 | 67 | 1010.4 |
| 20260506013432 | 13 | 337 | 4.8 | 6.4 | 0.00 | 0.05 | 0.00 | 67 | 1010.4 |
| 20260506012932 | 13 | 225 | 6.4 | 6.4 | 0.00 | 0.05 | 0.00 | 67 | 1010.5 |
| 20260506012433 | 13 | 247 | 3.2 | 3.2 | 0.00 | 0.05 | 0.00 | 67 | 1010.5 |
| 20260506011932 | 14 | 315 | 0.0 | 0.0 | 0.00 | 0.05 | 0.00 | 67 | 1010.6 |
| 20260506011432 | 14 | 315 | 0.0 | 4.8 | 0.00 | 0.05 | 0.00 | 67 | 1010.6 |
| 20260506010932 | 14 | 337 | 4.8 | 4.8 | 0.00 | 0.05 | 0.00 | 67 | 1010.5 |
| 20260506010432 | 14 | 337 | 0.0 | 4.8 | 0.00 | 0.05 | 0.00 | 67 | 1010.6 |
| 20260506005932 | 14 | 22 | 4.8 | 4.8 | 0.00 | 0.05 | 0.00 | 67 | 1010.6 |
| 20260506005433 | 14 | 0 | 1.6 | 1.6 | 0.00 | 0.05 | 0.00 | 67 | 1010.5 |
| 20260506004933 | 14 | 247 | 0.0 | 4.8 | 0.00 | 0.05 | 0.00 | 67 | 1010.5 |
| 20260506004433 | 14 | 292 | 4.8 | 4.8 | 0.00 | 0.05 | 0.00 | 67 | 1010.6 |
| 20260506003933 | 14 | 337 | 3.2 | 3.2 | 0.00 | 0.05 | 0.00 | 67 | 1010.7 |
| 20260506003433 | 14 | 270 | 0.0 | 0.0 | 0.00 | 0.05 | 0.00 | 67 | 1010.8 |
| 20260506002933 | 14 | 270 | 0.0 | 6.4 | 0.00 | 0.05 | 0.00 | 67 | 1010.7 |
| 20260506002433 | 15 | 0 | 4.8 | 4.8 | 0.00 | 0.05 | 0.00 | 66 | 1010.6 |
| 20260506001933 | 15 | 0 | 4.8 | 8.0 | 0.00 | 0.05 | 0.00 | 66 | 1010.8 |
| 20260506001433 | 15 | 337 | 8.0 | 8.0 | 0.00 | 0.05 | 0.00 | 65 | 1010.6 |
| 20260506000933 | 15 | 247 | 8.0 | 8.0 | 0.00 | 0.05 | 0.00 | 65 | 1010.8 |
| 20260506000433 | 15 | 225 | 0.0 | 4.8 | 0.00 | 0.05 | 0.00 | 65 | 1010.9 |
| 20260505235933 | 15 | 247 | 0.0 | 0.0 | 0.00 | 0.05 | 0.00 | 65 | 1010.9 |
| 20260505235433 | 15 | 247 | 0.0 | 0.0 | 0.00 | 0.05 | 0.00 | 65 | 1010.9 |
| 20260505233433 | 15 | 225 | 3.2 | 12.9 | 0.00 | 0.05 | 0.00 | 68 | 1011.0 |
| 20260505232933 | 14 | 225 | 9.7 | 9.7 | 0.00 | 0.05 | 0.00 | 68 | 1010.9 |
| 20260505232433 | 14 | 247 | 0.0 | 0.0 | 0.00 | 0.05 | 0.00 | 66 | 1010.9 |
| 20260505231933 | 14 | 225 | 0.0 | 4.8 | 0.00 | 0.05 | 0.00 | 66 | 1010.9 |
| 20260505231435 | 14 | 225 | 0.0 | 0.0 | 0.00 | 0.05 | 0.00 | 67 | 1010.7 |
| 20260505230933 | 14 | 225 | 0.0 | 1.6 | 0.00 | 0.05 | 0.00 | 67 | 1010.7 |
| 20260505230433 | 15 | 225 | 1.6 | 1.6 | 0.00 | 0.05 | 0.00 | 68 | 1010.9 |
| 20260505225933 | 15 | 225 | 0.0 | 0.0 | 0.00 | 0.05 | 0.00 | 68 | 1010.6 |
| 20260505225433 | 15 | 225 | 0.0 | 4.8 | 0.00 | 0.05 | 0.00 | 69 | 1010.7 |
| 20260505224933 | 15 | 225 | 1.6 | 1.6 | 0.00 | 0.05 | 0.00 | 69 | 1010.5 |
| 20260505224433 | 15 | 225 | 1.6 | 1.6 | 0.00 | 0.05 | 0.00 | 69 | 1010.6 |
| 20260505223933 | 15 | 225 | 0.0 | 0.0 | 0.00 | 0.05 | 0.00 | 69 | 1010.6 |
| 20260505223433 | 15 | 225 | 0.0 | 0.0 | 0.00 | 0.05 | 0.00 | 69 | 1010.6 |
| 20260505222933 | 15 | 225 | 0.0 | 0.0 | 0.00 | 0.05 | 0.00 | 69 | 1010.7 |
| 20260505222433 | 15 | 225 | 0.0 | 0.0 | 0.00 | 0.05 | 0.00 | 69 | 1010.6 |
| 20260505221933 | 15 | 225 | 0.0 | 0.0 | 0.00 | 0.05 | 0.00 | 69 | 1010.7 |
| 20260505221433 | 15 | 225 | 0.0 | 0.0 | 0.00 | 0.05 | 0.00 | 70 | 1010.8 |
| 20260505220933 | 15 | 225 | 0.0 | 3.2 | 0.00 | 0.05 | 0.00 | 70 | 1010.9 |
| 20260505220433 | 15 | 225 | 3.2 | 3.2 | 0.00 | 0.05 | 0.00 | 72 | 1010.9 |
| 20260505215933 | 15 | 247 | 0.0 | 0.0 | 0.00 | 0.05 | 0.00 | 72 | 1010.8 |
| 20260505215433 | 15 | 22 | 0.0 | 0.0 | 0.00 | 0.05 | 0.00 | 75 | 1011.1 |
| 20260505214933 | 15 | 22 | 0.0 | 1.6 | 0.00 | 0.05 | 0.00 | 75 | 1011.1 |
| 20260505214433 | 15 | 22 | 1.6 | 6.4 | 0.00 | 0.05 | 0.00 | 76 | 1011.5 |
| 20260505213933 | 15 | 0 | 6.4 | 6.4 | 0.00 | 0.05 | 0.00 | 78 | 1011.5 |
| 20260505213433 | 15 | 0 | 6.4 | 9.7 | 0.00 | 0.05 | 0.00 | 78 | 1011.6 |
| 20260505212933 | 15 | 292 | 0.0 | 4.8 | 0.00 | 0.05 | 0.00 | 80 | 1011.5 |
| 20260505212433 | 15 | 22 | 4.8 | 4.8 | 0.00 | 0.05 | 0.00 | 80 | 1011.5 |
| 20260505211933 | 15 | 270 | 0.0 | 1.6 | 0.00 | 0.05 | 0.00 | 80 | 1011.7 |
| 20260505211433 | 15 | 337 | 1.6 | 8.0 | 0.00 | 0.05 | 0.00 | 80 | 1011.6 |
| 20260505210933 | 16 | 0 | 8.0 | 8.0 | 0.00 | 0.05 | 0.00 | 79 | 1011.7 |
| 20260505210433 | 16 | 0 | 8.0 | 8.0 | 0.00 | 0.05 | 0.00 | 78 | 1011.5 |
| 20260505205933 | 16 | 0 | 4.8 | 4.8 | 0.00 | 0.05 | 0.00 | 78 | 1011.6 |
| 20260505205433 | 16 | 292 | 0.0 | 0.0 | 0.00 | 0.05 | 0.00 | 78 | 1011.3 |
| 20260505204933 | 16 | 337 | 0.0 | 4.8 | 0.00 | 0.05 | 0.00 | 78 | 1011.3 |
| 20260505204433 | 16 | 180 | 4.8 | 4.8 | 0.00 | 0.05 | 0.00 | 77 | 1011.2 |
| 20260505203933 | 16 | 0 | 4.8 | 11.3 | 0.00 | 0.05 | 0.00 | 77 | 1011.0 |
| 20260505203433 | 16 | 247 | 11.3 | 11.3 | 0.00 | 0.05 | 0.00 | 78 | 1010.9 |
| 20260505202933 | 16 | 247 | 11.3 | 11.3 | 0.00 | 0.05 | 0.00 | 78 | 1010.8 |
| 20260505202433 | 16 | 225 | 0.0 | 0.0 | 0.00 | 0.05 | 0.00 | 78 | 1010.7 |
| 20260505201933 | 16 | 225 | 0.0 | 9.7 | 0.00 | 0.05 | 0.00 | 78 | 1010.6 |
| 20260505201433 | 16 | 225 | 3.2 | 6.4 | 0.00 | 0.05 | 0.00 | 77 | 1010.7 |
| 20260505200933 | 16 | 247 | 6.4 | 6.4 | 0.00 | 0.05 | 0.00 | 77 | 1010.6 |
| 20260505200433 | 16 | 247 | 4.8 | 8.0 | 0.00 | 0.05 | 0.00 | 77 | 1010.5 |
| 20260505195933 | 16 | 225 | 8.0 | 8.0 | 0.00 | 0.05 | 0.00 | 76 | 1010.6 |
| 20260505195433 | 16 | 225 | 8.0 | 8.0 | 0.00 | 0.05 | 0.00 | 76 | 1010.5 |
| 20260505194933 | 16 | 247 | 6.4 | 6.4 | 0.00 | 0.05 | 0.00 | 76 | 1010.5 |
| 20260505194434 | 16 | 0 | 0.0 | 0.0 | 0.00 | 0.05 | 0.00 | 76 | 1010.4 |
| 20260505193933 | 16 | 0 | 0.0 | 0.0 | 0.00 | 0.05 | 0.00 | 75 | 1010.3 |
| 20260505193433 | 16 | 0 | 0.0 | 0.0 | 0.00 | 0.05 | 0.00 | 75 | 1010.1 |
| 20260505192933 | 16 | 0 | 0.0 | 0.0 | 0.00 | 0.05 | 0.00 | 75 | 1010.0 |
| 20260505192434 | 16 | 0 | 0.0 | 3.2 | 0.00 | 0.05 | 0.00 | 76 | 1009.7 |
| 20260505191934 | 16 | 45 | 3.2 | 3.2 | 0.00 | 0.05 | 0.00 | 76 | 1009.5 |
| 20260505191433 | 16 | 112 | 0.0 | 0.0 | 0.00 | 0.05 | 0.00 | 76 | 1009.8 |
| 20260505190934 | 16 | 112 | 0.0 | 3.2 | 0.00 | 0.05 | 0.00 | 76 | 1010.1 |
| 20260505190434 | 16 | 112 | 3.2 | 3.2 | 0.00 | 0.05 | 0.00 | 76 | 1009.8 |
| 20260505185934 | 16 | 112 | 1.6 | 1.6 | 0.00 | 0.05 | 0.00 | 75 | 1009.8 |
| 20260505185434 | 17 | 90 | 0.0 | 0.0 | 0.00 | 0.05 | 0.00 | 75 | 1009.8 |
| 20260505184934 | 17 | 90 | 0.0 | 3.2 | 0.00 | 0.05 | 0.00 | 75 | 1009.9 |
| 20260505184434 | 17 | 112 | 1.6 | 1.6 | 0.00 | 0.05 | 0.00 | 75 | 1009.8 |
| 20260505183934 | 17 | 22 | 0.0 | 0.0 | 0.00 | 0.05 | 0.00 | 75 | 1009.9 |
| 20260505183434 | 17 | 22 | 0.0 | 0.0 | 0.00 | 0.05 | 0.00 | 75 | 1010.1 |
| 20260505182934 | 17 | 22 | 0.0 | 0.0 | 0.00 | 0.46 | 0.00 | 75 | 1010.0 |
| 20260505182434 | 17 | 22 | 0.0 | 0.0 | 0.00 | 0.46 | 0.00 | 75 | 1009.9 |
| 20260505181934 | 16 | 22 | 0.0 | 0.0 | 0.00 | 0.46 | 0.00 | 75 | 1010.0 |
| 20260505181434 | 16 | 22 | 0.0 | 1.6 | 0.00 | 0.46 | 0.00 | 75 | 1009.9 |